Regional Weather Roundup
Issued by NWS Bismarck, ND

Home | Current Version | Previous Version | Text Only | Print | Product List | Glossary On
Versions: 1 2 3 4 5 6 7 8 9 10 11 12 13 14 15 16 17 18 19 20 21 22 23 24 25 26 27 28 29 30 31 32 33 34 35 36 37 38 39 40 41 42 43 44 45 46 47 48 49 50
000
ASUS43 KBIS 232010
RWRBIS

NWR BROADCAST TEXT
NATIONAL WEATHER SERVICE BISMARCK ND
300 PM CDT SUN APR 23 2017

NOTE: "FAIR" INDICATES FEW OR NO CLOUDS BELOW 12,000 FEET WITH NO
SIGNIFICANT WEATHER AND/OR OBSTRUCTIONS TO VISIBILITY.


CITY           SKY/WX    TMP DP  RH WIND       PRES   REMARKS
WILLISTON      CLOUDY    33  27  78 E16G28    29.96F
MINOT          LGT SNOW  32  28  85 E15G26    30.02F FOG
MINOT AFB      MIX PCPN  31  29  90 E20       30.02F FOG     WCI  19
BISMARCK       CLOUDY    40  33  76 E17G28    29.94S
DICKINSON      CLOUDY    35  30  82 E17       29.85F
GARRISON         N/A     31  28  89 E22G35    29.97F WCI  18
HETTINGER ARPT CLOUDY    44  35  70 NE14      29.83F
JAMESTOWN      CLOUDY    35  30  82 NE22G28   29.99R
HAZEN          CLOUDY    37  30  75 E15G25    29.96F
LINTON           N/A     46  43  87 E22G29    29.89F
MANDAN         CLOUDY    37  34  87 E22G28    29.92S
STANLEY        FLURRIES  30  30 100 E22G28    29.99F WCI  17
TIOGA          MOCLDY    30  30 100 E23G30    29.97F WCI  17
WATFORD CITY   CLOUDY    30  30 100 E17       29.94F WCI  18
$$

CITY           SKY/WX    TMP DP  RH WIND       PRES   REMARKS
GRAND FORKS    LGT SNOW  32  30  92 NE13      30.12F VSB 3/4
GRAND FORKS AF LGT SNOW  30  27  86 E13       30.13F VSB 1
DEVILS LAKE    LGT SNOW  28  25  86 E17G23    30.08F VSB 3/4 WCI  16
FARGO          CLOUDY    43  34  70 NE21      30.02F
CAVALIER       FAIR      39  16  38 E10G18    30.15F
GRAFTON        FAIR      37  18  44 E15       30.17F
GWINNER        PTCLDY    48  39  71 MISG      29.93F
LANGDON        MOCLDY    37  18  44 E17G28    30.11F
ROLLA          CLOUDY    32  14  47 E17       30.09F
$$

CITY           SKY/WX    TMP DP  RH WIND       PRES   REMARKS
ABERDEEN       FAIR      65  34  31 S15G21    29.84F
MOBRIDGE       FAIR      64  39  39 E14       29.76F
BUFFALO          N/A     49  38  65 E13       29.72F
RAPID CITY     FAIR      66  40  38 N8G17     29.73F
GLASGOW        CLOUDY    41  32  70 E21G26    29.80F
SIDNEY         CLOUDY    37  29  72 E18       29.90F
WOLF POINT     CLOUDY    41  31  67 E23       29.86F
GLENDIVE       CLOUDY    42  33  70 E17       29.83F
MILES CITY     FAIR      54  40  59 NE12      29.73F
BAKER          CLOUDY    41  33  73 E16G25    29.81F
$$

CITY           SKY/WX    TMP DP  RH WIND       PRES   REMARKS
BILLINGS       PTSUNNY   64  35  34 SW9       29.68F
GREAT FALLS    CLOUDY    46  41  82 CALM      29.74F
REGINA         CLOUDY    39  12  33 SE23G33   29.98F
ESTEVAN        LGT SNOW  32  25  74 E21G31    30.00F DRFTSNOWWCI  20
$$




USA.gov is the U.S. government's official web portal to all federal, state and local government web resources and services.